Hourly Weather Roundup
Issued by NWS Central Illinois

Home | Current Version | Previous Version | Text Only | Print | Product List | Glossary On
Versions: 1 2 3 4 5 6 7 8 9 10 11 12 13 14 15 16 17 18 19 20 21 22 23 24 25 26 27 28 29 30 31 32 33 34 35 36 37 38 39 40 41 42 43 44 45 46 47 48 49 50
000
NZUS43 KILX 251710
HWRILX

Area Weather Roundup
National Weather Service Lincoln IL
1200 PM CDT SUN JUN 25 2017

NOTE:  "FAIR" indicates few or no clouds below 12,000 feet, with
       no sigificant weather and/or obstructions to visibility.


CITY           SKY/WX    TMP DP  RH WIND       PRES   REMARKS
Bloomington    MOSUNNY   70  45  40 NW13G25   30.18S
Champaign      MOSUNNY   74  46  36 W14G25    30.17S
Danville       MOSUNNY   71  47  42 W15       30.15S
Decatur        MOSUNNY   74  46  36 W15       30.18F
Effingham      SUNNY     76  49  38 W10       30.20F
Flora          SUNNY    N/A N/A N/A NW10G22   30.20F
Galesburg      PTSUNNY   68  49  50 W16       30.20S
Jacksonville   SUNNY     73  44  35 W16G23    30.20F
Lacon          CLOUDY    69  46  42 W9G21     30.16S
Lawrenceville  SUNNY     78  54  43 W15       30.19S
Litchfield     SUNNY     73  49  41 W14G20    30.21S
$$


CITY           SKY/WX    TMP DP  RH WIND       PRES   REMARKS
Lincoln        SUNNY     74  46  36 W9G18     30.18F
Macomb         MOSUNNY   70  46  41 NW17G24   30.22S
Mattoon        SUNNY     74  52  46 W12G24    30.18S
Mt Carmel AP   SUNNY     76  53  45 W15G22    30.19S
Olney-Noble AP SUNNY     75  55  50 W10       30.20F
Paris AP       SUNNY     72  52  48 W14G21    30.18F
Peoria         SUNNY     71  45  39 NW13G24   30.18S
Pontiac        PTSUNNY   70  44  40 NW17G25   30.16F
Rantoul        PTSUNNY   73  48  41 NW14G22   30.16F
Robinson       SUNNY     75  52  44 W8        30.19S
Springfield    SUNNY     75  45  34 W13G21    30.19F
Taylorville    SUNNY     74  46  37 NW18G25   30.20S
$$

...REGIONAL REPORTS...


CITY           SKY/WX    TMP DP  RH WIND       PRES   REMARKS
Chicago O`Hare PTSUNNY   69  45  41 W14G25    30.10S
Kankakee       MOSUNNY   72  45  37 W18       30.15F
Moline         PTSUNNY   69  47  45 W16       30.17S
Mount Sterling SUNNY     71  47  42 NW13G22   30.21F
Mount Vernon   SUNNY     78  53  41 W7        30.21F
Pittsfield     SUNNY     73  47  39 W10G20    30.23S
Quincy         SUNNY     73  46  38 NW16G23   30.22S
Rockford       PTSUNNY   68  47  46 NW17G25   30.13S
$$


CITY           SKY/WX    TMP DP  RH WIND       PRES   REMARKS
Burlington     MOSUNNY   70  48  45 W10G23    30.20S
Cedar Rapids   CLOUDY    63  50  62 NW18G30   30.19R
Des Moines     MOSUNNY   69  43  38 NW20G29   30.25S
Kirksville     SUNNY     71  47  42 NW15G26   30.27R
Ottumwa        MOSUNNY   70  46  42 W18G25    30.23S
St Louis       SUNNY     81  45  28 NW14G23   30.22F HX  80
$$


CITY           SKY/WX    TMP DP  RH WIND       PRES   REMARKS
Terre Haute    SUNNY     73  50  44 W10G21    30.18S
Evansville     SUNNY     81  50  33 W15G21    30.20F HX  80
Indianapolis   MOSUNNY   72  48  42 W17       30.16S
Lafayette      MOSUNNY   68  48  48 W16G23    30.14F
Madison        PTSUNNY   61  49  64 NW9G17    30.10S
Milwaukee      PTSUNNY   68  48  48 W13G26    30.06S
$$





USA.gov is the U.S. government's official web portal to all federal, state and local government web resources and services.